Regional Weather Roundup
Issued by NWS

Home | Current Version | Previous Version | Text Only | Print | Product List | Glossary Off
Versions: 1 2 3 4 5 6 7 8 9 10 11 12 13 14 15 16 17 18 19 20 21 22 23 24 25 26 27 28 29 30 31 32 33 34 35 36 37 38 39 40 41 42 43 44 45 46 47 48 49 50

000
ASUS43 KLMK 251002
RWRKY
KENTUCKY REGIONAL WEATHER ROUNDUP
NATIONAL WEATHER SERVICE LOUISVILLE KY
600 AM EDT FRI MAY 25 2018

NOTE "FAIR" INDICATES FEW OR NO CLOUDS BELOW 12,000 FEET
WITH NO SIGNIFICANT WEATHER AND/OR OBSTRUCTIONS TO VISIBILITY.

KYZ001>023-026-027-061>063-070>075-251100-
WESTERN AND SOUTH CENTRAL KENTUCKY

CITY           SKY/WX    TMP DP  RH WIND       PRES   REMARKS
PADUCAH        FAIR      67  65  93 CALM      29.99S
HENDERSON      NOT AVBL
OWENSBORO      FAIR      65  61  87 CALM      30.01
HOPKINSVILLE   FAIR      68  66  95 CALM      30.01S
BOWLING GREEN  FAIR      65  64  97 CALM      30.02S
GLASGOW        NOT AVBL
$$

KYZ024-025-028>034-038-045-046-053-251100-
NORTH CENTRAL KENTUCKY

CITY           SKY/WX    TMP DP  RH WIND       PRES   REMARKS
LOUISVILLE/SDF FAIR      66  58  75 CALM      30.02S
LOUISVILLE/LOU FAIR      60  60 100 CALM      30.03F
FORT KNOX      FAIR      58  58  98 CALM      30.03F
$$

KYZ035>037-039>044-047>052-055>060-089>105-251100-
NORTHEAST KENTUCKY

CITY           SKY/WX    TMP DP  RH WIND       PRES   REMARKS
LEXINGTON      FAIR      62  57  83 CALM      30.04S
COVINGTON      FAIR      59  56  89 CALM      30.03F
FRANKFORT      FAIR      60  56  86 CALM      30.03S
$$

KYZ054-064>069-076>088-106>120-251100-
SOUTHEAST KENTUCKY

CITY           SKY/WX    TMP DP  RH WIND       PRES   REMARKS
JACKSON        FAIR      68  61  78 CALM      30.06F
LONDON         FAIR      66  63  90 CALM      30.06S
SOMERSET       NOT AVBL
MIDDLESBORO    FAIR      67  67 100 CALM      30.09S
MONTICELLO     FAIR      64  63  96 W6        30.06F
$$




USA.gov is the U.S. government's official web portal to all federal, state and local government web resources and services.